Regional Weather Roundup
Issued by NWS

Home | Current Version | Previous Version | Graphics & Text | Print | Product List | Glossary Off
Versions: 1 2 3 4 5 6 7 8 9 10 11 12 13 14 15 16 17 18 19 20 21 22 23 24 25 26 27 28 29 30 31 32 33 34 35 36 37 38 39 40 41 42 43 44 45 46 47 48 49 50

000
ASUS43 KDTX 211710
RWRMI
MICHIGAN HOURLY REGIONAL WEATHER ROUNDUP
NATIONAL WEATHER SERVICE DETROIT/PONTIAC MI
100 PM EDT THU SEP 21 2017

NOTE: "FAIR" INDICATES FEW OR NO CLOUDS BELOW 12,000 FEET WITH NO
SIGNIFICANT WEATHER AND/OR OBSTRUCTION TO VISIBILITY.

MIZ047>049-052>055-059>063-066>070-074>076-081>083-211800-
SOUTHEAST LOWER MICHIGAN

CITY           SKY/WX    TMP DP  RH WIND       PRES   REMARKS
ADRIAN         SUNNY     86  68  54 VRB3      30.08F
ALMA           MOSUNNY   87  67  51 SW6       30.05F HX  90
ANN ARBOR      SUNNY     87  72  60 VRB5      30.07F HX  93
BAD AXE        SUNNY     85  68  56 SW8       30.07S
CARO           SUNNY     87  69  56 SW6       30.05S HX  91
DETROIT CITY   MOSUNNY   84  72  67 VRB7      30.08S
DETROIT        MOSUNNY   86  73  65 S8        30.08F HX  93
FLINT          SUNNY     87  69  54 SW7       30.06F HX  91
GROSSE ILE     CLOUDY    76  70  80 S5        30.08S
HILLSDALE      MOSUNNY   86  70  58 S7        30.09F HX  90
HOWELL         SUNNY     87  70  56 S5        30.07F HX  91

CITY           SKY/WX    TMP DP  RH WIND       PRES   REMARKS
JACKSON        SUNNY     88  67  49 VRB6      30.07F HX  91
LAMBERTVILLE   SUNNY     87  72  60 CALM      30.07F HX  93
LANSING        SUNNY     90  69  50 S7        30.06F HX  94
LAPEER         FAIR      87  68  52 S7        30.07S HX  91
MASON          SUNNY     91  68  47 SW7       30.07S HX  95
MONROE         SUNNY     87  70  57 SW5       30.07S HX  92
MT. CLEMENS    MOSUNNY   80  74  81 S9        30.07F
PONTIAC        MOSUNNY   86  71  60 S8        30.06F HX  91
PORT HURON     SUNNY     84  68  58 S8        30.08F
TRI CITIES     SUNNY     85  71  63 VRB5      30.06S HX  90
MIDLAND        FAIR      84  69  60 CALM      30.04F
TROY           SUNNY     86  71  60 S10       30.09F HX  91
SAGINAW HB     SUNNY     84  70  61 S6        30.04F
$$
MIZ043>046-050>051-056>058-064>065-071>073-077>080-211800-
SOUTHWEST LOWER MICHIGAN

CITY           SKY/WX    TMP DP  RH WIND       PRES   REMARKS
BATTLE CREEK   SUNNY     89  72  56 S9        30.07F HX  96
BENTON HARBOR  MOSUNNY   86  71  60 SW7       30.04S HX  91
BIG RAPIDS     MOSUNNY   82  68  61 S8        30.05S
COLDWATER      SUNNY     87  70  56 S7        30.08S HX  92
FREMONT        FAIR      82  70  67 SW8       30.05S
HOLLAND        SUNNY     83  69  62 VRB3      30.05F
GRAND RAPIDS   PTSUNNY   91  70  49 SW7       30.05S HX  96
IONIA          FAIR      89  68  50 S6        30.04F HX  92
KALAMAZOO      SUNNY     87  70  56 S5        30.05F HX  92
LUDINGTON      CLOUDY    79  66  66 W6        30.03S
MARSHALL       SUNNY     88  71  55 SW8       30.06F HX  93
MOUNT PLEASANT CLOUDY    85  68  56 SW3       30.04S
MUSKEGON       PTSUNNY   84  69  60 SW6       30.04F
SOUTH HAVEN    SUNNY     83  70  63 W7        30.05S
$$
MIZ016>042-211800-
NORTHERN LOWER MICHIGAN

CITY           SKY/WX    TMP DP  RH WIND       PRES   REMARKS
ALPENA         CLOUDY    83  72  69 S7        30.03F
BEAVER ISLAND  MOSUNNY   77  68  75 N5        30.04S
BELLAIRE       SUNNY     83  65  55 S3        30.02S
CADILLAC       SUNNY     86  64  48 SW6       30.05S
CHARLEVOIX     MOSUNNY   77  67  71 W6        30.06S
FRANKFORT      SUNNY     79  67  66 W3        30.03S
GAYLORD        CLOUDY    84  64  50 S9        30.05S
GRAYLING       SUNNY     85  66  54 S5        30.05F
HARBOR SPRINGS PTSUNNY   78  67  68 SW6       30.03S
HOUGHTON LAKE  SUNNY     83  68  60 S7        30.05F
MANISTEE       MOSUNNY   82  68  62 W5        30.02S
OSCODA         MOSUNNY   84  67  57 S14       30.04S
PELLSTON       PTSUNNY   81  70  69 N9        30.03S
ROGERS CITY    MOSUNNY   74  68  82 CALM      30.05R
TRAVERSE CITY  MOSUNNY   83  67  58 NE8       30.00S
$$
MIZ007>008-015-211800-
EASTERN UPPER MICHIGAN

CITY           SKY/WX    TMP DP  RH WIND       PRES   REMARKS
KINROSS        CLOUDY    72  67  84 NE3       30.05S
MACKINAC ISLAN PTSUNNY   76  68  75 NE6       30.04S
NEWBERRY       CLOUDY    75  73  91 CALM      30.04S
S. S. MARIE    CLOUDY    74  67  78 CALM      30.04S
MUNISING         N/A     65  62  90 NE13      30.06R
$$
MIZ004>006-011>014-085-211800-
CENTRAL UPPER MICHIGAN

CITY           SKY/WX    TMP DP  RH WIND       PRES   REMARKS
MANISTIQUE     MOSUNNY   78  67  69 CALM      30.02F
ESCANABA       PTSUNNY   75  64  68 NE7       30.03F
MENOMINEE      CLOUDY    71  65  81 E7        30.04S
$$
MIZ001>003-009>011-084-211800-
WESTERN UPPER MICHIGAN

CITY           SKY/WX    TMP DP  RH WIND       PRES   REMARKS
IRON MOUNTAIN  SUNNY     74  60  61 E6        30.04F
HOUGHTON       SUNNY     67  52  58 SE9       30.07S
COPPER HARBOR    N/A     61  55  81 NE3       30.07S
IRONWOOD       SUNNY     71  59  65 SE9       30.03F
$$

ABBREVIATIONS USED IN REMARKS
   TC - TEMPERATURE IN CELSIUS
  WCI - WIND CHILL INDEX
   HX - HEAT INDEX
  VSB - VISIBILITY





USA.gov is the U.S. government's official web portal to all federal, state and local government web resources and services.